Wakefield, VA

6:00 AM EST on November 12, 2019 (GMT -0500)
Wakefield Municipal

Weather History for KAKQ - July, 2019

Change the Weather History Date:

Tuesday, July 16, 2019

  Actual Average (WUND) Record (WUND)
Temperature  
Mean Temperature 83 °F -  
Max Temperature 93 °F - - (-1)
Min Temperature 73 °F - - (-1)
Cooling Degree Days 18    
Growing Degree Days 33 (Base 50)    
Moisture  
Dew Point 73 °F    
Average Humidity 69    
Maximum Humidity 93    
Minimum Humidity 52    
Precipitation  
Precipitation 0.00 in - - ()
Sea Level Pressure  
Sea Level Pressure 30.07 in    
Wind  
Wind Speed 3 mph (SW)    
Max Wind Speed 9 mph    
Max Gust Speed 20 mph    
Visibility 10 miles    
Events Rain , Thunderstorm    
Averages and records for this station are not official NWS values.
T = Trace of Precipitation, MM = Missing Value Source: NWS Daily Summary

Daily Weather History Graph

Daily Weather History Graph

Search for Another Location

Airport or City:

Astronomy

Jul. 16, 2019 Rise Set
Actual Time 6:00 AM EDT 8:27 PM EDT
Civil Twilight 5:30 AM EDT 8:56 PM EDT
Nautical Twilight 4:53 AM EDT 9:33 PM EDT
Astronomical Twilight 4:12 AM EDT 10:14 PM EDT
Moon 8:31 PM EDT (7/16) 5:37 AM EDT (7/16)
Length of Visible Light 15h 26m
Length of Day
14h 26m
Full, 100% of the Moon is Illuminated
Jul 16
Full
Jul 16
Full
Jul 24
Last Quarter
Jul 31
New
Aug 7
First Quarter

Hourly Weather History & Observations

Time (EDT) Temp. Heat Index Dew Point Humidity Pressure Visibility Wind Dir Wind Speed Gust Speed Precip Events Conditions
12:54 AM 77.0 °F - 71.1 °F 82% 30.08 in 10.0 mi South 3.5 mph - N/A   Clear
1:54 AM 77.0 °F - 71.1 °F 82% 30.07 in 10.0 mi Calm Calm - N/A   Clear
2:54 AM 75.9 °F - 72.0 °F 87% 30.05 in 10.0 mi Calm Calm - N/A   Clear
3:54 AM 73.9 °F - 71.1 °F 91% 30.05 in 9.0 mi Calm Calm - N/A   Clear
4:54 AM 73.0 °F - 71.1 °F 93% 30.06 in 6.0 mi Calm Calm - N/A   Clear
5:54 AM 73.0 °F - 70.0 °F 90% 30.08 in 5.0 mi Calm Calm - N/A   Clear
7:54 AM 79.0 °F - 73.0 °F 82% 30.11 in 7.0 mi Calm Calm - N/A   Clear
8:54 AM 82.0 °F 88.6 °F 75.0 °F 79% 30.10 in 9.0 mi Calm Calm - N/A   Clear
9:54 AM 87.1 °F 96.3 °F 75.0 °F 67% 30.09 in 10.0 mi Calm Calm - N/A   Clear
10:54 AM 90.0 °F 101.3 °F 75.9 °F 63% 30.09 in 10.0 mi WSW 3.5 mph - N/A   Clear
11:54 AM 91.0 °F 102.9 °F 75.9 °F 61% 30.10 in 10.0 mi SW 4.6 mph - N/A   Partly Cloudy
12:54 PM 91.0 °F 101.6 °F 75.0 °F 59% 30.09 in 10.0 mi SW 5.8 mph - N/A   Clear
1:24 PM 91.4 °F 102.5 °F 75.2 °F 59% 30.09 in 10.0 mi West 4.6 mph - N/A Thunderstorm Clear
1:37 PM 91.9 °F 103.9 °F 75.9 °F 59% 30.08 in 10.0 mi Calm Calm - N/A Thunderstorm Thunderstorm
1:54 PM 91.9 °F 103.9 °F 75.9 °F 59% 30.07 in 10.0 mi West 6.9 mph - N/A Thunderstorm Thunderstorm
2:14 PM 93.0 °F 103.2 °F 73.9 °F 54% 30.07 in 10.0 mi West 6.9 mph - N/A Thunderstorm Clear
2:54 PM 93.9 °F 105.4 °F 75.0 °F 54% 30.05 in 10.0 mi Variable 4.6 mph - N/A Thunderstorm Clear
3:03 PM 93.9 °F 104.0 °F 73.9 °F 52% 30.05 in 10.0 mi SW 6.9 mph - N/A   Clear
3:54 PM 91.9 °F 103.9 °F 75.9 °F 59% 30.05 in 10.0 mi Calm Calm - N/A   Clear
4:24 PM 91.9 °F 105.9 °F 77.0 °F 62% 30.05 in 10.0 mi SW 3.5 mph - N/A Thunderstorm Clear
4:54 PM 93.0 °F 105.3 °F 75.9 °F 57% 30.04 in 10.0 mi South 5.8 mph - N/A Thunderstorm Clear
5:27 PM 88.0 °F 96.5 °F 73.9 °F 63% 30.06 in 10.0 mi ESE 9.2 mph - N/A Thunderstorm Thunderstorm
5:40 PM 84.9 °F 89.4 °F 70.0 °F 61% 30.06 in 10.0 mi SSE 9.2 mph 19.6 mph N/A   Clear
5:54 PM 84.9 °F 88.2 °F 68.0 °F 57% 30.05 in 10.0 mi South 9.2 mph - N/A   Clear
6:54 PM 82.0 °F 84.9 °F 68.0 °F 62% 30.03 in 10.0 mi Variable 5.8 mph - N/A   Partly Cloudy
7:54 PM 80.1 °F 82.9 °F 69.1 °F 69% 30.07 in 10.0 mi SW 8.1 mph - N/A   Clear
8:54 PM 79.0 °F - 68.0 °F 69% 30.06 in 10.0 mi SSW 3.5 mph - N/A   Clear
9:54 PM 78.1 °F - 70.0 °F 76% 30.07 in 10.0 mi Calm Calm - N/A   Clear
10:54 PM 77.0 °F - 71.1 °F 82% 30.06 in 10.0 mi Calm Calm - 0.00 in Rain Light Rain
11:54 PM 75.9 °F - 72.0 °F 87% 30.07 in 9.0 mi Calm Calm - 0.00 in   Clear